This is the latest recevied weather packets stored in our database for station/object KC1DMA. If no packets are shown the sender has not sent any weather packets the latest 10 day(s).
| Time | Temp. | Humidity | Pressure | Rain* | Wind** | Luminosity | Snow |
|---|---|---|---|---|---|---|---|
| 1777903978 | 16.67° C | 39% | 1013.9 hPa | - | - | 626 W/m² | - |
| 1777903674 | 16.67° C | 37% | 1013.9 hPa | - | - | 635 W/m² | - |
| 1777903370 | 16.11° C | 38% | 1014.1 hPa | - | - | 616 W/m² | - |
| 1777903067 | 16.67° C | 41% | 1013.7 hPa | - | - | 605 W/m² | - |
| 1777902763 | 16.67° C | 39% | 1014.2 hPa | - | - | 592 W/m² | - |
| 1777902461 | 16.11° C | 41% | 1014.2 hPa | - | - | 574 W/m² | - |
| 1777902157 | 15.56° C | 41% | 1014 hPa | - | - | 550 W/m² | - |
| 1777901856 | 15.56° C | 41% | 1014.1 hPa | - | - | 550 W/m² | - |
| 1777901553 | 15.56° C | 41% | 1014.2 hPa | - | - | 542 W/m² | - |
| 1777901250 | 15° C | 43% | 1014.3 hPa | - | - | 525 W/m² | - |
| 1777900947 | 15° C | 44% | 1014.2 hPa | - | - | 507 W/m² | - |
| 1777900645 | 15.56° C | 41% | 1014.2 hPa | - | - | 495 W/m² | - |
| 1777900342 | 15° C | 43% | 1014.4 hPa | - | - | 482 W/m² | - |
| 1777900039 | 14.44° C | 47% | 1014.4 hPa | - | - | 466 W/m² | - |
| 1777899734 | 13.89° C | 46% | 1014.5 hPa | - | - | 450 W/m² | - |
| 1777899432 | 14.44° C | 47% | 1014.6 hPa | - | - | 433 W/m² | - |
| 1777899130 | 13.89° C | 50% | 1014.5 hPa | - | - | 417 W/m² | - |
| 1777898827 | 13.89° C | 47% | 1014.6 hPa | - | - | 401 W/m² | - |
| 1777898525 | 12.78° C | 50% | 1014.8 hPa | - | - | 382 W/m² | - |
| 1777898222 | 12.78° C | 52% | 1015 hPa | - | - | 365 W/m² | - |
| 1777897919 | 12.78° C | 49% | 1015 hPa | - | - | 347 W/m² | - |
| 1777897615 | 12.78° C | 49% | 1014.8 hPa | - | - | 334 W/m² | - |
| 1777897310 | 12.22° C | 50% | 1014.6 hPa | - | - | 312 W/m² | - |
| 1777897007 | 12.22° C | 49% | 1014.9 hPa | - | - | 295 W/m² | - |
| 1777896704 | 11.67° C | 50% | 1014.8 hPa | - | - | 283 W/m² | - |
* Rain since midnight (hover to see other rain measurements)
** Current wind speed in m/s (hover to see current wind gust speed)